Meteo Giornale » Osservazioni meteo Italia » Cuneo-Levaldigi

ore: 06:50 - Osservazioni Meteo Cuneo-Levaldigi
Lat. 44° 32' N Lon. 7° 37' E Alt. 396 metri s.l.m.

molto_nuvoloso Europe/Rome

18 °C

Molto Nuvoloso

Temp. 24 Ore

17 °C

24 °C

Ovest/Sud-Ovest

7.4 Km/h

Dew point 17 °C

Umidità 93 %

Visibilità  10 Km

Il sole sorge alle ore 06:34

Il sole tramonta alle ore 20:32

Data e Ora Cielo e Fenomeni T °C DP °C Um. % Pres. hPa Vis. km Vento km/h
Oggi h: 06:50 molto_nuvoloso Molto Nuvoloso 18 17 93 1012 10 O/SO 7.4
Oggi h: 06:20 molto_nuvoloso Molto Nuvoloso 18 17 93 1012 10 SO 11.1
Oggi h: 05:50 molto_nuvoloso Molto Nuvoloso 17 17 100 1012 10 N 5.5
Oggi h: 05:20 coperto_pioggia Pioggia Debole 18 17 93 1013 10 N 5.5
Oggi h: 04:50 coperto_pioggia Pioggia Debole 17 17 100 1012 10 N 5.5
Oggi h: 04:20 molto_nuvoloso Molto Nuvoloso 17 17 100 1013 10 N 3.7
Oggi h: 03:50 molto_nuvoloso Molto Nuvoloso 18 17 93 1013 10 NO 9.3
Oggi h: 03:20 molto_nuvoloso Molto Nuvoloso 18 17 93 1013 10 N 13
Oggi h: 02:50 coperto_pioggia Pioggia Debole 18 18 100 1014 9 N 14.8
Oggi h: 02:20 coperto_pioggia Pioggia Debole 19 19 100 1014 4 NO 7.4
Oggi h: 01:50 foschia Foschia 19 19 100 1013 5 N 5.5
Oggi h: 01:20 coperto_pioggia Pioggia Debole 19 19 100 1013 6 N 5.5
Oggi h: 00:50 molto_nuvoloso Molto Nuvoloso 20 19 93 1014 8 N 5.5
Oggi h: 00:20 molto_nuvoloso Molto Nuvoloso 20 19 93 1014 10 N 3.7
Ieri h: 23:50 molto_nuvoloso Molto Nuvoloso 20 19 93 1014 10 N 3.7
Ieri h: 23:20 nuvoloso Nuvoloso 19 19 100 1014 10 N 3.7
Ieri h: 22:50 nuvoloso Nuvoloso 19 19 100 1014 10 N 3.7
Ieri h: 22:20 poco_nuvoloso Poco Nuvoloso 19 19 100 1014 10 SO 7.4
Ieri h: 21:50 molto_nuvoloso Molto Nuvoloso 20 19 93 1013 10 N 3.7
Ieri h: 21:20 molto_nuvoloso Molto Nuvoloso 20 19 93 1013 10 N 3.7
Ieri h: 20:50 molto_nuvoloso Molto Nuvoloso 20 19 93 1013 10 N 5.5
Ieri h: 20:20 molto_nuvoloso Molto Nuvoloso 21 18 82 1012 10 E 7.4
Ieri h: 19:50 molto_nuvoloso Molto Nuvoloso 22 19 83 1012 10 E 9.3
Ieri h: 19:20 sereno Sereno 24 18 69 1013 10 N 3.7
Ieri h: 18:50 sereno Sereno 24 19 73 1013 10 N 3.7
Ieri h: 18:20 poco_nuvoloso Poco Nuvoloso 24 18 69 1013 10 N 3.7
Ieri h: 17:50 poco_nuvoloso Poco Nuvoloso 24 19 73 1013 10 N 1.8
Ieri h: 17:20 molto_nuvoloso Molto Nuvoloso 22 21 94 1014 10 N 1.8
Ieri h: 16:50 coperto_pioggia Pioggia Debole 21 20 94 1014 10 O/SO 9.3
Ieri h: 16:20 coperto_pioggia Pioggia 21 20 94 1013 9 SE 13
Ieri h: 15:50 coperto_pioggia Pioggia Debole Temporale nelle Vicinanze 22 20 88 1015 10 SO 7.4
Ieri h: 15:20 coperto_pioggia Pioggia Debole 23 19 78 1015 10 N 1.8
Ieri h: 14:50 coperto_pioggia Pioggia Debole 23 18 73 1015 10 N 3.7
Ieri h: 14:20 poco_nuvoloso Poco Nuvoloso 24 18 69 1015 10 NE 7.4
Ieri h: 13:50 molto_nuvoloso Molto Nuvoloso 24 18 69 1015 10 N 5.5
Ieri h: 13:20 nuvoloso Nuvoloso 24 18 69 1015 10 N 5.5
Ieri h: 12:50 molto_nuvoloso Molto Nuvoloso 24 18 69 1015 10 N 5.5
Ieri h: 12:20 molto_nuvoloso Molto Nuvoloso 23 18 73 1015 10 N 3.7
Ieri h: 11:50 molto_nuvoloso Molto Nuvoloso 23 18 73 1015 10 N 3.7
Ieri h: 11:20 nuvoloso Nuvoloso 23 18 73 1015 10 N 3.7
Ieri h: 10:50 molto_nuvoloso Molto Nuvoloso 22 18 78 1015 10 N 3.7
Ieri h: 10:20 molto_nuvoloso Molto Nuvoloso 21 19 88 1014 10 N 5.5
Ieri h: 09:50 molto_nuvoloso Molto Nuvoloso 21 19 88 1014 10 N 1.8
Ieri h: 09:20 molto_nuvoloso Molto Nuvoloso 20 18 88 1014 10 N 3.7
Ieri h: 08:50 molto_nuvoloso Molto Nuvoloso 19 18 93 1014 10 N 1.8
Ieri h: 08:20 coperto_pioggia Pioviggine Leggera 19 18 93 1013 10 O 7.4
Ieri h: 07:50 molto_nuvoloso Molto Nuvoloso 19 18 93 1013 10 N 3.7